IRIDIUM 33 DEB, 46435

Orbit data source: Space-Track

IRIDIUM 33 DEB, 46435 is space debris in LEO originally from a launch on Sun, 14 Sep 1997 UTC launched from the Tyuratam Missile And Space Complex (TTMTR). The debris from Iridium 33, an American commercial communications satellite, has been tracked extensively since its accidental collision with the defunct Russian satellite Cosmos 2251 in 2009. This event, occurring at high speed in low Earth orbit (LEO), generated thousands of pieces of space debris, significantly increasing the risk of further collisions. The Iridium 33 debris cloud has impacted space traffic management and orbital debris mitigation strategies, making it a subject of ongoing study in space situational awareness.

Loading next visibility...
Identifier
46435, 1997-051ABN
Orbit
LEO
Country
Flag of USUS
Related business
Manufacturer
Unknown
Mission
Spacecraft
Bus & Motor
Unknown
Mass
Unknown
Launch date (UTC)
1997-09-14 (29 years ago)
Launch vehicle
Unknown
Launch site
Tyuratam Missile And Space Complex (TTMTR)
Object type
Payload
Rocket body
Debris
Shape & HBR
Unknown shape, 0.050 m
Radar Cross Section
Small (<0.1 m²)

Expand to show TLE details & history
Last TLE update: 4 days ago

TLE from 4 days ago
0 IRIDIUM 33 DEB
1 46435U 97051ABN 26263.23853558  .00008021  00000-0  19766-2 0  9994
2 46435  86.2739  71.5813 0200273  70.9580 102.3736 14.40593057119615
Epoch: 2026-09-20T05:43Z
TLE epoch observation values (Epoch: 2026-09-20T05:43:29.474Z)
Latitude
4.3374°
Longitude
166.2914°
Altitude
792.48 km
Speed
7.44 km/s
True Right ascension
16h 45m 11s
True Declination
4° 18' 42"
Sunlit
Object was in daylight at epoch
Visualization orbit readout
Latitude
Unknown
Longitude
Unknown
Altitude
Unknown
Speed
Unknown
Apparent Right ascension
Unknown
Apparent Declination
Unknown
Sunlit
N/A
Visualization observer readout
Local Sidereal Time
12:42:32
Azimuth
Unknown
Elevation
Unknown
Doppler factor
Unknown
Orbital elements
Apogee altitude
896.323 km
Perigee altitude
610.668 km
Semi-major axis
7,131.633 km
Eccentricity
0.02003
Inclination
86.2739°
RAAN
71.5813°
Arg. of periapsis
70.958°
True anomaly
104.60272°
Mean anomaly
102.3736°
Eccentric anomaly
103.48942°
Mean motion
3.60379 °/min
Orbital period
99.89 mins
BSTAR
0.0019766
Loading maneuver chart data...
Computing Atmospheric mass density...

Documentation

Showing up to 5 results
|